Location: Luxembourg
(49.6117°N, 6.1300°E)
Time: 21:23:28
(UTC+01:00)

Vanguard 2 Rocket - Visible Passes

Search period start: 15 January 2026 00:00
Search period end: 25 January 2026 00:00
Orbit: 553 x 3287 km, 32.9° (Epoch: 15 January)

Date Brightness Start Highest point End Pass type
(mag) Time Alt. Az. Time Alt. Az. Time Alt. Az.
15 Jan 10.4 02:23:56 12° SE 02:23:56 12° SE 02:24:43 10° ESE visible
15 Jan 9.6 04:29:17 25° S 04:29:17 25° S 04:39:25 10° SE visible
15 Jan 10.1 06:36:06 10° SW 06:41:59 14° SSW 06:48:56 10° S visible
16 Jan 10.0 03:28:10 19° SSE 03:28:10 19° SSE 03:32:58 10° SE visible
16 Jan 9.8 05:33:31 16° SW 05:36:20 17° SSW 05:45:00 10° S visible
17 Jan 9.8 04:32:25 19° S 04:32:25 19° S 04:39:45 10° SSE visible
18 Jan 10.1 03:31:20 14° SSE 03:31:20 14° SSE 03:33:53 10° SSE visible
18 Jan 10.0 05:36:41 11° SW 05:38:47 12° SSW 05:42:45 10° S visible
19 Jan 10.0 04:35:38 13° S 04:35:38 13° S 04:39:12 10° S visible
